GearBest 2017-2018 年末年始クーポン・セール情報まとめ

gearbest-end-of-2017-sale

GearBestが2017年~2018年にかけて、年末年始セールを開催。日本向けセール会場が更新されている他、全世界向けの年末年始セール会場、また2018年1月2日までの定時クーポンもあるので、欲しいものがあるかチェックしておきましょう。

GearBest 年末年始 大セール会場

gearbest-end-of-2017-sale

メインは日本向け特設ページが更新された「GearBest 年末年始 大セール会場」。中華スマホ、タブレット、PC、周辺機器、中華イヤホン、スマートデバイスなどが一斉にセール対象となっています。

セールページにはクーポンが記載されているがあるので、表示価格へ適用させるためにコピペして使いましょう。

日本向け激安クーポン会場

Goodbye 2017 セール会場

gearbest-goodbye2017

次に年末年始の全体向けセール会場「Goodbye 2017」を紹介。期間は(一応)2018年1月8日までとなっており、フラッシュセールでプロモーション製品が登場する他、年末年始ということでLucky Bag、所謂福袋も登場します。

gearbest-luckybag-2017-2018

また既定金額以上の購入で対象商品が安く買える「Cool Add-ons」キャンペーンも行われており、USBハブやスマホ用トライポッドが0.99ドルで購入できるチャンスがあります。こちらも確認。

Goodbye 2017 セール会場

2017-2018 年末年始の定時クーポン

最後に、2017年末から2018年にかけて公開されている定時クーポンコードも紹介しておきます。各限定数と開始時間が決まっているので、欲しいガジェットがあるかチェック。

12/29 ~ 2018/1/2 定時クーポンクーポンコード割引後価格限定数開始時間
Smart Bluetooth 4.0 Tracer GPS Locator Xmas500$0.995002017/12/29 21:00
DOCTOR·B Deep Cleaning Toothbrush - 4PCS Xmas501$6.992002017/12/29 21:00
Ulefone Armor 2 4G Smartphone Xmas502$219.99502017/12/29 22:00
MX10 TV BoxXmas503$46.99502017/12/29 22:00
KingWear KW88 3G Smartwatch PhoneXmas504$76.991002017/12/29 23:00
MECOOL M8S Pro+ TV BoxXmas505$32.991002017/12/29 23:00
Powered Liquid Plastic Welding Compound with UV LightXmas506$1.992002017/12/30 00:00
Yeelight YLTD02YL LED Table LightXmas507$22.991002017/12/30 00:00
Star Sky Print Focus Toy Stress Relief Fidget SpinnerXmas508$0.692002017/12/30 01:00
ZTE Axon 7 Mini 4G SmartphoneXmas509$119.991002017/12/30 01:00
ORICO 2139U3 2.5 inch USB 3.0 Micro B Hard Drive EnclosureXmas510$3.993002017/12/30 02:00
KZ ZS5 Detachable HiFi EarphonesXmas511$16.991002017/12/30 02:00
DJI Spark Mini RC Selfie DroneXmas512$639.99502017/12/30 03:00
HakkaDeal Lock Pick Practice Set with Transparent PadlockXmas513$5.99602017/12/30 03:00
Lenovo HW01 Smart Wristband Lenovo HW01 Smart Wristband Xmas514$15.992002017/12/30 04:00
T10 Bluetooth Car MP3 FM Transmitter - BLACKXmas515$9.991002017/12/30 04:00
Zeblaze THOR 3G Smartwatch Phone - BLACKXmas516$89.991002017/12/30 11:00
BZ02 Multifunctional Folding Pliers / Nails Tool - SILVERXmas517$0.992002017/12/30 11:00
S10 WiFi FPV 2.4GHz 4-channel RC Drone - RTF - BLACKXmas518$35.99502017/12/30 17:00
Original Xiaomi Piston In Ear Earphones Fresh Version - BLACKXmas519$3.992002017/12/30 17:00
SMZ658 HiFi Earphones Xmas520$0.695002017/12/30 21:00
Lenovo HW01 Smart Wristband Xmas521$15.992002017/12/30 21:00
HOMTOM ZOJI Z8 4G Smartphone
Xmas522$146.99502017/12/30 22:00
FY FEIYUTECH SPG C 3-axis Stabilized Handheld GimbalXmas523$109.99502017/12/30 22:00
Elephone EleCam Explorer Elite 4K Action Camera Xmas524$55.991002017/12/30 23:00
Original DJI GL100A TransmitterXmas525$99.99202017/12/30 23:00
M.Sparkling 3D Creative Colorful USB Powered Night LampXmas526$5.991002017/12/31 00:00
Original Xiaomi Huami AMAZFIT Sports Bluetooth Smart WatchXmas527$99.991002017/12/31 00:00
ANDE 3.5mm Jack In-ear EarphonesXmas528$0.992002017/12/31 01:00
Ulefone S8 Pro 4G SmartphoneXmas529$79.99502017/12/31 01:00
T10 Wedge LED Car Interior LightXmas530$0.112002017/12/31 02:00
Onda V10 4G PhabletXmas531$109.991002017/12/31 02:00
ORICO CBS7 Desktop Cable Organizer Silicone Wire Holder ClipXmas532$1.995002017/12/31 03:00
Lenovo P8 Tablet PCXmas533$139.99502017/12/31 03:00
KZ ZS5 Detachable HiFi EarphonesXmas534$14.992002017/12/31 04:00
LEAGOO KIICAA MIX 4G Phablet - 3GB RAM 32GB ROM BLACKXmas535$95.991002017/12/31 04:00
Alfawise A95X R1 TV Box - EU BLACKXmas536$19.991002017/12/31 11:00
A1 Bluetooth Smart Watch Phone with Pedometer Camera Single SIM - BLACKXmas537$9.991002017/12/31 11:00
60W 220V Electronic Soldering Iron Kit with Carry Case - EU PLUG LIGHT BLUEXmas538$15.99502017/12/31 17:00
MK1519 1M Mini Measuring Tape / Rule with Keychain - COLORMIX Xmas539$0.991002017/12/31 17:00
4pcs Original Five Holding Razor BladeXmas540$0.993002017/12/31 21:00
ZT102 Digital Multimeter Xmas541$9.992002017/12/31 21:00
Original DJI 3830mAh 11.4V Intelligent Flight Battery Xmas542$89.99502017/12/31 22:00
Vernee Thor Plus 4G Phablet Xmas543$119.99502017/12/31 22:00
LERAVAN Mi Home Electrical TENS Pulse Therapy Massage MachineXmas544$19.991002017/12/31 23:00
MAZE Alpha 4G PhabletXmas545$149.99502017/12/31 23:00
SZKINSTON 10-in-1 Universal USB Charging Sync Data CableXmas546$1.692002018/1/1 00:00
Xiaomi Mi Notebook ProXmas547$899.99502018/1/1 00:00
HOWSHOW 8.5-inch Magic LCD Electronic Drawing TabletXmas548$5.991002018/1/1 01:00
HUINA 1550 1:14 2.4GHz 15CH RC Alloy ExcavatorXmas549$38.99502018/1/1 01:00
CHUWI Hi13 2 in 1 Tablet PCXmas550$299.99502018/1/1 02:00
Mini Digital LCD Indoor Thermometer HygrometerXmas551$0.993002018/1/1 02:00
ZOP Power ZOP 1500mAh 11.1V 40C Battery XT60 Plug for RC Airplane / BoatXmas552$7.991002018/1/1 03:00
OUKITEL K3 4G Phablet Xmas553$135.99502018/1/1 03:00
DIY 16 in 1 Sensor Module Kit for RaspberryXmas554$9.991002018/1/1 04:00
Ender Desktop 3D Printer Kit - EU PLUG BLACKXmas555$145.99502018/1/1 04:00
Waterproof Nylon Backpack - BLACKXmas556$21.991002018/1/1 11:00
Micro USB Male to USB Female OTG Cable Adapter 2PCS - BLACKXmas557$0.592002018/1/1 11:00
TEVISE 9008G Business Men Automatic Mechanical Watch - BLUE Xmas558$20.99502018/1/1 17:00
Unique Design Multifunctional Attractive Key Chain Ring - COLORMIX Xmas559$0.691002018/1/1 17:00
Car Steering Wheel Phone Mount HolderHNYear001$0.695002018/1/1 21:00
WUXING LZS85 LCD 8.5 inch Digital Graphic Tablet HNYear002$7.991002018/1/1 21:00
HIGOLE GOLE1 Plus Mini PC - 4G + 128G EU PLUG HNYear003$219.99502018/1/1 22:00
JJRC H47 ELFIE+ Foldable RC Pocket Selfie Drone - RTF - WITH THREE BATTERIES HNYear004$42.991002018/1/1 22:00
GameSir G4s Bluetooth V4.0 / 2.4G Wireless / Wired Gamepad HNYear005$35.992002018/1/1 23:00
Lenovo P8 ( TAB3 8 Plus ) Tablet PCHNYear006$129.991002018/1/1 23:00
Original Xiaomi Piston In Ear Earphones Fresh VersionHNYear007$2.993002018/1/2 00:00
Alfawise H96 Pro+ TV BoxHNYear008$58.991002018/1/2 00:00
TS - BT35A08 HiFi Car Wireless Bluetooth 3.0 Audio Music Converter ReceiverHNYear009$1.991002018/1/2 01:00
Xiaomi Bluetooth 4.0 Smart Weight ScaleHNYear010$39.991002018/1/2 01:00
Xiaomi dafang 1080P Smart Monitor CameraHNYear011$22.992002018/1/2 02:00
Type C to USB 3.0 Female Sync CableHNYear012$0.995002018/1/2 02:00
HKC C7000 27 inch Curved ScreenHNYear013$209.99502018/1/2 03:00
ZT102 Digital MultimeterHNYear014$9.992002018/1/2 03:00
U8 Smartwatch WatchHNYear015$5.993002018/1/2 04:00
Sunvell T95V PRO Portable Digital TV Box Android 7.1 OS - EU PLUG DEEP GRAYHNYear016$55.99502018/1/2 04:00
Huawei P9 Lite ( VNS - L31 ) 4G Smartphone Global Version - GOLDEN HNYear017$165.991002018/1/2 11:00
Bluedio H+ Wireless Bluetooth Headset with Mic - BLACKHNYear018$18.991002018/1/2 11:00
CF006 Smart Watch Heart Rate Blood Pressure Blood Oxygen Monitoring Smart Bracelet - BLACK STEEL BANDHNYear019$19.991002018/1/2 17:00
295mm Flexible Shaft Screwdriver Bit - BLACKHNYear020$0.992002018/1/2 17:00

最新クーポンはこちら

シェア

フォロー